Time,TemperatureF,DewpointF,PressureIn,WindDirection,WindDirectionDegrees,WindSpeedMPH,WindSpeedGustMPH,Humidity,HourlyPrecipIn,Conditions,Clouds,dailyrainin,SoftwareType,DateUTC
2013-05-30 00:01:00,68.5,64.5,29.94,ESE,112,2.9,2.9,87,0.00,,-RA,0.16,VWS V14.01,2013-05-30 04:01:00,
2013-05-30 00:06:00,68.7,64.7,29.94,SSE,158,0.0,0.0,87,0.00,,-RA,0.00,VWS V14.01,2013-05-30 04:06:00,
2013-05-30 00:11:00,68.7,64.7,29.94,SSE,158,0.0,0.0,87,0.00,,-RA,0.00,VWS V14.01,2013-05-30 04:11:00,
2013-05-30 00:16:00,68.5,64.5,29.91,South,180,1.6,1.6,87,0.00,,-RA,0.00,VWS V14.01,2013-05-30 04:16:00,
2013-05-30 00:21:00,68.4,64.3,29.91,SSE,158,0.0,0.0,87,0.00,,-RA,0.00,VWS V14.01,2013-05-30 04:21:00,
2013-05-30 00:26:00,68.2,64.2,29.91,SSE,158,0.0,0.0,87,0.00,,-RA,0.00,VWS V14.01,2013-05-30 04:26:00,
2013-05-30 00:31:00,68.0,64.3,29.91,SSE,158,0.0,0.0,88,0.00,,-RA,0.00,VWS V14.01,2013-05-30 04:31:00,
2013-05-30 00:36:00,67.8,64.1,29.91,SSE,158,0.0,0.0,88,0.00,,-RA,0.00,VWS V14.01,2013-05-30 04:36:00,
2013-05-30 00:41:00,67.6,64.3,29.91,SSE,158,0.0,0.0,89,0.00,,-RA,0.00,VWS V14.01,2013-05-30 04:41:00,
2013-05-30 00:46:00,67.5,64.1,29.94,SSE,158,0.0,0.0,89,0.00,,-RA,0.00,VWS V14.01,2013-05-30 04:46:00,
2013-05-30 00:51:00,67.5,64.1,29.94,SSE,158,0.0,0.0,89,0.00,,-RA,0.00,VWS V14.01,2013-05-30 04:51:00,
2013-05-30 00:56:00,67.3,64.2,29.94,SE,135,0.0,0.0,90,0.00,,-RA,0.00,VWS V14.01,2013-05-30 04:56:00,
2013-05-30 01:01:00,67.1,64.1,29.94,ESE,112,0.0,0.0,90,0.00,,-RA,0.00,VWS V14.01,2013-05-30 05:01:00,
2013-05-30 01:06:00,66.9,63.9,29.94,SSE,158,0.0,0.0,90,0.00,,-RA,0.00,VWS V14.01,2013-05-30 05:06:00,
2013-05-30 01:11:00,66.7,63.7,29.94,SSE,158,0.0,0.0,90,0.00,,-RA,0.00,VWS V14.01,2013-05-30 05:11:00,
2013-05-30 01:16:00,66.6,63.9,29.94,SSE,158,0.0,0.0,91,0.00,,-RA,0.00,VWS V14.01,2013-05-30 05:16:00,
2013-05-30 01:21:00,66.4,63.7,29.94,SSE,158,0.0,0.0,91,0.00,,-RA,0.00,VWS V14.01,2013-05-30 05:21:00,
2013-05-30 01:26:00,66.2,63.5,29.94,SSE,158,0.0,0.0,91,0.00,,-RA,0.00,VWS V14.01,2013-05-30 05:26:00,
2013-05-30 01:31:00,66.2,63.5,29.94,South,180,0.0,0.0,91,0.00,,-RA,0.00,VWS V14.01,2013-05-30 05:31:00,
2013-05-30 01:36:00,66.4,64.0,29.94,SSW,202,0.0,0.0,92,0.00,,-RA,0.00,VWS V14.01,2013-05-30 05:36:00,
2013-05-30 01:41:00,66.2,63.5,29.94,South,180,0.0,0.0,91,0.00,,-RA,0.00,VWS V14.01,2013-05-30 05:41:00,
2013-05-30 01:46:00,66.2,63.8,29.94,SE,135,2.0,2.0,92,0.00,,-RA,0.00,VWS V14.01,2013-05-30 05:46:00,
2013-05-30 01:51:00,66.2,63.8,29.94,South,180,0.0,0.0,92,0.00,,-RA,0.00,VWS V14.01,2013-05-30 05:51:00,
2013-05-30 01:56:00,66.2,63.8,29.94,SSE,158,0.0,0.0,92,0.00,,-RA,0.00,VWS V14.01,2013-05-30 05:56:00,
2013-05-30 02:01:00,66.7,64.3,29.94,SSW,202,2.9,2.9,92,0.00,,-RA,0.00,VWS V14.01,2013-05-30 06:01:00,
2013-05-30 02:06:00,66.9,64.2,29.94,SSE,158,0.9,0.9,91,0.00,,-RA,0.00,VWS V14.01,2013-05-30 06:06:00,
2013-05-30 02:11:00,67.1,64.4,29.94,SSE,158,0.0,0.0,91,0.00,,-RA,0.00,VWS V14.01,2013-05-30 06:11:00,
2013-05-30 02:16:00,67.1,64.1,29.94,SSE,158,0.0,0.0,90,0.00,,-RA,0.00,VWS V14.01,2013-05-30 06:16:00,
2013-05-30 02:21:00,67.1,64.1,29.94,South,180,2.7,2.7,90,0.00,,-RA,0.00,VWS V14.01,2013-05-30 06:21:00,
2013-05-30 02:26:00,66.9,63.6,29.94,SSE,158,0.0,0.0,89,0.00,,-RA,0.00,VWS V14.01,2013-05-30 06:26:00,
2013-05-30 02:31:00,66.9,63.6,29.94,SSE,158,0.0,0.0,89,0.00,,-RA,0.00,VWS V14.01,2013-05-30 06:31:00,
2013-05-30 02:36:00,66.7,63.4,29.94,SSE,158,3.1,3.1,89,0.00,,-RA,0.00,VWS V14.01,2013-05-30 06:36:00,
2013-05-30 02:41:00,66.9,63.6,29.94,SSW,202,2.0,2.0,89,0.00,,-RA,0.00,VWS V14.01,2013-05-30 06:41:00,
2013-05-30 02:46:00,66.9,63.6,29.94,WSW,248,3.6,3.6,89,0.00,,-RA,0.00,VWS V14.01,2013-05-30 06:46:00,
2013-05-30 02:51:00,66.9,63.3,29.94,SE,135,0.0,0.0,88,0.00,,-RA,0.00,VWS V14.01,2013-05-30 06:51:00,
2013-05-30 02:56:00,66.9,63.3,29.94,SSE,158,0.0,0.0,88,0.00,,-RA,0.00,VWS V14.01,2013-05-30 06:56:00,
2013-05-30 03:01:00,66.7,63.1,29.94,South,180,0.0,0.0,88,0.00,,-RA,0.00,VWS V14.01,2013-05-30 07:01:00,
2013-05-30 03:06:00,66.9,63.3,29.94,SSW,202,0.0,0.0,88,0.00,,-RA,0.00,VWS V14.01,2013-05-30 07:06:00,
2013-05-30 03:11:00,66.7,62.8,29.94,SW,225,3.8,3.8,87,0.00,,-RA,0.00,VWS V14.01,2013-05-30 07:11:00,
2013-05-30 03:16:00,66.7,62.8,29.94,SE,135,1.6,1.6,87,0.00,,-RA,0.00,VWS V14.01,2013-05-30 07:16:00,
2013-05-30 03:21:00,66.7,62.8,29.94,SSW,202,0.0,0.0,87,0.00,,-RA,0.00,VWS V14.01,2013-05-30 07:21:00,
2013-05-30 03:26:00,66.6,62.6,29.94,East,90,0.0,0.0,87,0.00,,-RA,0.00,VWS V14.01,2013-05-30 07:26:00,
2013-05-30 03:31:00,66.4,62.4,29.94,South,180,0.0,0.0,87,0.00,,-RA,0.00,VWS V14.01,2013-05-30 07:31:00,
2013-05-30 03:36:00,66.2,62.2,29.94,SE,135,0.0,0.0,87,0.00,,-RA,0.00,VWS V14.01,2013-05-30 07:36:00,
2013-05-30 03:41:00,66.2,62.2,29.94,SSE,158,0.0,0.0,87,0.00,,-RA,0.00,VWS V14.01,2013-05-30 07:41:00,
2013-05-30 03:46:00,66.0,62.4,29.94,South,180,1.3,1.3,88,0.00,,-RA,0.00,VWS V14.01,2013-05-30 07:46:00,
2013-05-30 03:51:00,66.0,62.4,29.94,ESE,112,1.3,1.3,88,0.00,,-RA,0.00,VWS V14.01,2013-05-30 07:51:00,
2013-05-30 03:56:00,66.2,62.2,29.94,East,90,0.0,0.0,87,0.00,,-RA,0.00,VWS V14.01,2013-05-30 07:56:00,
2013-05-30 04:01:00,66.2,62.2,29.94,SSW,202,0.0,0.0,87,0.00,,-RA,0.00,VWS V14.01,2013-05-30 08:01:00,
2013-05-30 04:06:00,66.2,62.2,29.94,SSE,158,0.0,0.0,87,0.00,,-RA,0.00,VWS V14.01,2013-05-30 08:06:00,
2013-05-30 04:11:00,66.0,62.0,29.94,SE,135,0.0,0.0,87,0.00,,-RA,0.00,VWS V14.01,2013-05-30 08:11:00,
2013-05-30 04:16:00,66.0,62.0,29.94,South,180,0.0,0.0,87,0.00,,-RA,0.00,VWS V14.01,2013-05-30 08:16:00,
2013-05-30 04:21:00,65.8,61.9,29.94,SSE,158,1.1,1.1,87,0.00,,-RA,0.00,VWS V14.01,2013-05-30 08:21:00,
2013-05-30 04:26:00,65.8,61.9,29.94,SSE,158,0.0,0.0,87,0.00,,-RA,0.00,VWS V14.01,2013-05-30 08:26:00,
2013-05-30 04:31:00,65.8,61.9,29.94,South,180,2.9,2.9,87,0.00,,-RA,0.00,VWS V14.01,2013-05-30 08:31:00,
2013-05-30 04:36:00,65.8,61.9,29.94,SSE,158,0.0,0.0,87,0.00,,-RA,0.00,VWS V14.01,2013-05-30 08:36:00,
2013-05-30 04:41:00,65.7,61.7,29.94,SSE,158,0.9,0.9,87,0.00,,-RA,0.00,VWS V14.01,2013-05-30 08:41:00,
2013-05-30 04:46:00,65.8,61.9,29.94,SE,135,0.0,0.0,87,0.00,,-RA,0.00,VWS V14.01,2013-05-30 08:46:00,
2013-05-30 04:51:00,65.7,61.7,29.94,SSE,158,2.9,2.9,87,0.00,,-RA,0.00,VWS V14.01,2013-05-30 08:51:00,
2013-05-30 04:56:00,65.8,61.9,29.94,SSE,158,0.0,0.0,87,0.00,,-RA,0.00,VWS V14.01,2013-05-30 08:56:00,
2013-05-30 05:01:00,65.8,61.9,29.94,SSE,158,0.0,0.0,87,0.00,,-RA,0.00,VWS V14.01,2013-05-30 09:01:00,
2013-05-30 05:06:00,65.7,61.7,29.94,SSE,158,2.5,2.5,87,0.00,,-RA,0.00,VWS V14.01,2013-05-30 09:06:00,
2013-05-30 05:11:00,65.7,61.7,29.94,South,180,1.6,1.6,87,0.00,,-RA,0.00,VWS V14.01,2013-05-30 09:11:00,
2013-05-30 05:16:00,65.7,61.7,29.94,SSE,158,0.0,0.0,87,0.00,,-RA,0.00,VWS V14.01,2013-05-30 09:16:00,
2013-05-30 05:21:00,65.5,61.5,29.94,ESE,112,0.0,0.0,87,0.00,,-RA,0.00,VWS V14.01,2013-05-30 09:21:00,
2013-05-30 05:26:00,65.5,61.5,29.94,South,180,2.9,2.9,87,0.00,,-RA,0.00,VWS V14.01,2013-05-30 09:26:00,
2013-05-30 05:31:00,65.5,61.5,29.94,SSE,158,0.0,0.0,87,0.00,,-RA,0.00,VWS V14.01,2013-05-30 09:31:00,
2013-05-30 05:36:00,65.3,61.3,29.94,SSW,202,0.0,0.0,87,0.00,,-RA,0.00,VWS V14.01,2013-05-30 09:36:00,
2013-05-30 05:41:00,65.3,61.7,29.94,South,180,0.0,0.0,88,0.00,,-RA,0.00,VWS V14.01,2013-05-30 09:41:00,
2013-05-30 05:46:00,65.1,61.5,29.94,ESE,112,0.0,0.0,88,0.00,,-RA,0.00,VWS V14.01,2013-05-30 09:46:00,
2013-05-30 05:51:00,65.1,61.5,29.94,SSW,202,0.0,0.0,88,0.00,,-RA,0.00,VWS V14.01,2013-05-30 09:51:00,
2013-05-30 05:56:00,64.9,61.3,29.94,SSE,158,0.0,0.0,88,0.00,,-RA,0.00,VWS V14.01,2013-05-30 09:56:00,
2013-05-30 06:01:00,64.9,61.3,29.94,SSE,158,1.1,1.1,88,0.00,,-RA,0.00,VWS V14.01,2013-05-30 10:01:00,
2013-05-30 06:06:00,64.9,61.3,29.94,SSE,158,0.0,0.0,88,0.00,,-RA,0.00,VWS V14.01,2013-05-30 10:06:00,
2013-05-30 06:11:00,65.3,61.7,29.94,South,180,0.0,0.0,88,0.00,,-RA,0.00,VWS V14.01,2013-05-30 10:11:00,
2013-05-30 06:16:00,65.3,61.7,29.94,SSE,158,0.0,0.0,88,0.00,,-RA,0.00,VWS V14.01,2013-05-30 10:16:00,
2013-05-30 06:21:00,65.8,62.2,29.94,SSE,158,1.6,1.6,88,0.00,,-RA,0.00,VWS V14.01,2013-05-30 10:21:00,
2013-05-30 06:26:00,66.4,62.4,29.94,SSE,158,0.0,0.0,87,0.00,,-RA,0.00,VWS V14.01,2013-05-30 10:26:00,
2013-05-30 06:31:00,66.6,62.6,29.94,South,180,2.0,2.0,87,0.00,,-RA,0.00,VWS V14.01,2013-05-30 10:31:00,
2013-05-30 06:36:00,66.9,62.6,29.94,South,180,1.6,1.6,86,0.00,,-RA,0.00,VWS V14.01,2013-05-30 10:36:00,
2013-05-30 06:41:00,67.1,62.5,29.94,SSE,158,6.0,6.0,85,0.00,,-RA,0.00,VWS V14.01,2013-05-30 10:41:00,
2013-05-30 06:46:00,67.6,62.6,29.94,South,180,0.0,0.0,84,0.00,,-RA,0.00,VWS V14.01,2013-05-30 10:46:00,
2013-05-30 06:51:00,67.8,62.5,29.94,SSE,158,3.8,3.8,83,0.00,,-RA,0.00,VWS V14.01,2013-05-30 10:51:00,
2013-05-30 06:56:00,68.4,62.3,29.94,ESE,112,2.5,2.5,81,0.00,,-RA,0.00,VWS V14.01,2013-05-30 10:56:00,
2013-05-30 07:01:00,68.5,62.1,29.94,SSE,158,4.3,4.3,80,0.00,,-RA,0.00,VWS V14.01,2013-05-30 11:01:00,
2013-05-30 07:06:00,68.9,62.1,29.94,SSW,202,0.0,0.0,79,0.00,,-RA,0.00,VWS V14.01,2013-05-30 11:06:00,
2013-05-30 07:11:00,69.3,62.5,29.94,ESE,112,2.9,2.9,79,0.00,,-RA,0.00,VWS V14.01,2013-05-30 11:11:00,
2013-05-30 07:16:00,69.4,62.7,29.97,ESE,112,4.7,4.7,79,0.00,,-RA,0.00,VWS V14.01,2013-05-30 11:16:00,
2013-05-30 07:21:00,69.8,62.3,29.97,SSE,158,3.1,3.1,77,0.00,,-RA,0.00,VWS V14.01,2013-05-30 11:21:00,
2013-05-30 07:26:00,70.0,62.1,29.97,ESE,112,3.6,3.6,76,0.00,,-RA,0.00,VWS V14.01,2013-05-30 11:26:00,
2013-05-30 07:31:00,70.2,62.2,29.97,SSE,158,2.9,2.9,76,0.00,,-RA,0.00,VWS V14.01,2013-05-30 11:31:00,
2013-05-30 07:36:00,70.3,62.4,29.97,ESE,112,0.9,0.9,76,0.00,,-RA,0.00,VWS V14.01,2013-05-30 11:36:00,
2013-05-30 07:41:00,70.5,62.2,29.97,SSE,158,2.7,2.7,75,0.00,,-RA,0.00,VWS V14.01,2013-05-30 11:41:00,
2013-05-30 07:46:00,70.9,62.2,29.94,SSW,202,7.2,7.2,74,0.00,,-RA,0.00,VWS V14.01,2013-05-30 11:46:00,
2013-05-30 07:51:00,71.1,62.4,29.94,South,180,1.3,1.3,74,0.00,,-RA,0.00,VWS V14.01,2013-05-30 11:51:00,
2013-05-30 07:56:00,71.2,62.5,29.94,SE,135,2.2,2.2,74,0.00,,-RA,0.00,VWS V14.01,2013-05-30 11:56:00,
2013-05-30 08:01:00,71.4,62.7,29.97,SSE,158,2.5,2.5,74,0.00,,-RA,0.00,VWS V14.01,2013-05-30 12:01:00,
2013-05-30 08:06:00,71.6,62.5,29.97,SE,135,3.6,3.6,73,0.00,,-RA,0.00,VWS V14.01,2013-05-30 12:06:00,
2013-05-30 08:11:00,72.0,62.5,29.97,South,180,2.5,2.5,72,0.00,,-RA,0.00,VWS V14.01,2013-05-30 12:11:00,
2013-05-30 08:16:00,72.1,62.2,29.97,SSW,202,4.9,4.9,71,0.00,,-RA,0.00,VWS V14.01,2013-05-30 12:16:00,
2013-05-30 08:21:00,72.3,62.8,29.97,SSW,202,4.0,4.0,72,0.00,,-RA,0.00,VWS V14.01,2013-05-30 12:21:00,
2013-05-30 08:26:00,72.1,62.6,29.97,SSE,158,7.4,7.4,72,0.00,,-RA,0.00,VWS V14.01,2013-05-30 12:26:00,
2013-05-30 08:31:00,72.1,62.2,29.97,SSE,158,2.7,2.7,71,0.00,,-RA,0.00,VWS V14.01,2013-05-30 12:31:00,
2013-05-30 08:35:00,72.5,62.6,29.97,SSE,158,2.9,2.9,71,0.00,,-RA,0.00,VWS V14.01,2013-05-30 12:35:00,
2013-05-30 08:40:00,72.7,62.7,29.97,SSE,158,2.0,2.0,71,0.00,,-RA,0.00,VWS V14.01,2013-05-30 12:40:00,
2013-05-30 08:45:00,72.7,63.1,29.97,SSE,158,0.0,0.0,72,0.00,,-RA,0.00,VWS V14.01,2013-05-30 12:45:00,
2013-05-30 08:50:00,73.0,63.1,29.97,SE,135,2.5,2.5,71,0.00,,-RA,0.00,VWS V14.01,2013-05-30 12:50:00,
2013-05-30 08:55:00,73.4,62.6,29.97,South,180,6.3,6.3,69,0.00,,-RA,0.00,VWS V14.01,2013-05-30 12:55:00,
2013-05-30 09:00:00,73.6,63.2,29.97,SE,135,3.4,3.4,70,0.00,,-RA,0.00,VWS V14.01,2013-05-30 13:00:00,
2013-05-30 09:05:00,73.8,63.4,29.97,West,270,0.0,0.0,70,0.00,,-RA,0.00,VWS V14.01,2013-05-30 13:05:00,
2013-05-30 09:10:00,74.1,62.5,29.97,SE,135,8.1,8.1,67,0.00,,-RA,0.00,VWS V14.01,2013-05-30 13:10:00,
2013-05-30 09:15:00,74.5,63.2,29.94,WNW,292,2.5,2.5,68,0.00,,-RA,0.00,VWS V14.01,2013-05-30 13:15:00,
2013-05-30 09:20:00,74.8,63.6,29.94,ESE,112,4.0,4.0,68,0.00,,-RA,0.00,VWS V14.01,2013-05-30 13:20:00,
2013-05-30 09:25:00,75.4,63.2,29.94,ESE,112,3.6,3.6,66,0.00,,-RA,0.00,VWS V14.01,2013-05-30 13:25:00,
2013-05-30 09:30:00,76.3,63.7,29.94,NNW,338,1.6,1.6,65,0.00,,-RA,0.00,VWS V14.01,2013-05-30 13:30:00,
2013-05-30 09:35:00,77.5,64.0,29.94,ENE,68,4.7,4.7,63,0.00,,-RA,0.00,VWS V14.01,2013-05-30 13:35:00,
2013-05-30 09:40:00,78.8,64.2,29.94,SSW,202,5.6,5.6,61,0.00,,-RA,0.00,VWS V14.01,2013-05-30 13:40:00,
2013-05-30 09:45:00,80.1,64.9,29.94,SSE,158,2.7,2.7,60,0.00,,-RA,0.00,VWS V14.01,2013-05-30 13:45:00,
2013-05-30 09:50:00,81.3,63.6,29.94,SE,135,6.9,6.9,55,0.00,,-RA,0.00,VWS V14.01,2013-05-30 13:50:00,
2013-05-30 09:55:00,82.9,66.2,29.94,WSW,248,3.6,3.6,57,0.00,,-RA,0.00,VWS V14.01,2013-05-30 13:55:00,
2013-05-30 10:00:00,83.5,65.6,29.94,SE,135,2.9,2.9,55,0.00,,-RA,0.00,VWS V14.01,2013-05-30 14:00:00,
2013-05-30 10:05:00,84.0,62.2,29.94,South,180,4.3,4.3,48,0.00,,-RA,0.00,VWS V14.01,2013-05-30 14:05:00,
2013-05-30 10:10:00,84.6,62.7,29.94,SE,135,3.8,3.8,48,0.00,,-RA,0.00,VWS V14.01,2013-05-30 14:10:00,
2013-05-30 10:15:00,84.9,62.5,29.94,West,270,1.1,1.1,47,0.00,,-RA,0.00,VWS V14.01,2013-05-30 14:15:00,
2013-05-30 10:20:00,85.3,62.2,29.94,ESE,112,3.4,3.4,46,0.00,,-RA,0.00,VWS V14.01,2013-05-30 14:20:00,
2013-05-30 10:25:00,85.5,63.0,29.94,SW,225,1.3,1.3,47,0.00,,-RA,0.00,VWS V14.01,2013-05-30 14:25:00,
2013-05-30 10:30:00,85.3,61.6,29.94,South,180,2.9,2.9,45,0.00,,-RA,0.00,VWS V14.01,2013-05-30 14:30:00,
2013-05-30 10:35:00,85.1,62.0,29.94,South,180,7.4,7.4,46,0.00,,-RA,0.00,VWS V14.01,2013-05-30 14:35:00,
2013-05-30 10:40:00,85.3,62.8,29.94,East,90,4.0,4.0,47,0.00,,-RA,0.00,VWS V14.01,2013-05-30 14:40:00,
2013-05-30 10:45:00,85.5,63.5,29.94,NNW,338,2.7,2.7,48,0.00,,-RA,0.00,VWS V14.01,2013-05-30 14:45:00,
2013-05-30 10:50:00,85.6,63.1,29.94,SSE,158,9.8,9.8,47,0.00,,-RA,0.00,VWS V14.01,2013-05-30 14:50:00,
2013-05-30 10:55:00,85.6,63.1,29.94,SW,225,7.6,7.6,47,0.00,,-RA,0.00,VWS V14.01,2013-05-30 14:55:00,
2013-05-30 11:00:00,85.6,63.1,29.94,South,180,7.6,7.6,47,0.00,,-RA,0.00,VWS V14.01,2013-05-30 15:00:00,
2013-05-30 11:05:00,85.6,63.1,29.94,WSW,248,5.4,5.4,47,0.00,,-RA,0.00,VWS V14.01,2013-05-30 15:05:00,
2013-05-30 11:10:00,85.5,63.0,29.94,SSW,202,8.5,8.5,47,0.00,,-RA,0.00,VWS V14.01,2013-05-30 15:10:00,
2013-05-30 11:15:00,85.8,63.9,29.94,SSE,158,6.5,6.5,48,0.00,,-RA,0.00,VWS V14.01,2013-05-30 15:15:00,
2013-05-30 11:20:00,85.8,64.5,29.94,SSW,202,2.2,2.2,49,0.00,,-RA,0.00,VWS V14.01,2013-05-30 15:20:00,
2013-05-30 11:25:00,86.0,63.4,29.94,SE,135,5.6,5.6,47,0.00,,-RA,0.00,VWS V14.01,2013-05-30 15:25:00,
2013-05-30 11:30:00,86.0,64.0,29.94,SSE,158,5.4,5.4,48,0.00,,-RA,0.00,VWS V14.01,2013-05-30 15:30:00,
2013-05-30 11:35:00,85.1,62.6,29.94,South,180,4.9,4.9,47,0.00,,-RA,0.00,VWS V14.01,2013-05-30 15:35:00,
2013-05-30 11:40:00,85.5,63.5,29.94,SSW,202,2.9,2.9,48,0.00,,-RA,0.00,VWS V14.01,2013-05-30 15:40:00,
2013-05-30 11:45:00,85.6,64.3,29.97,SSE,158,3.1,3.1,49,0.00,,-RA,0.00,VWS V14.01,2013-05-30 15:45:00,
2013-05-30 11:50:00,85.5,63.5,29.97,South,180,6.7,6.7,48,0.00,,-RA,0.00,VWS V14.01,2013-05-30 15:50:00,
2013-05-30 11:55:00,85.1,61.4,29.97,ESE,112,3.1,3.1,45,0.00,,-RA,0.00,VWS V14.01,2013-05-30 15:55:00,
2013-05-30 12:00:00,84.6,62.1,29.97,South,180,2.9,2.9,47,0.00,,-RA,0.00,VWS V14.01,2013-05-30 16:00:00,
2013-05-30 12:05:00,83.8,61.5,29.97,SW,225,4.3,4.3,47,0.00,,-RA,0.00,VWS V14.01,2013-05-30 16:05:00,
2013-05-30 12:10:00,84.6,63.3,29.97,SE,135,6.5,6.5,49,0.00,,-RA,0.00,VWS V14.01,2013-05-30 16:10:00,
2013-05-30 12:15:00,84.9,63.1,29.94,South,180,8.7,8.7,48,0.00,,-RA,0.00,VWS V14.01,2013-05-30 16:15:00,
2013-05-30 12:20:00,84.4,62.6,29.94,South,180,4.7,4.7,48,0.00,,-RA,0.00,VWS V14.01,2013-05-30 16:20:00,
2013-05-30 12:25:00,84.9,63.7,29.94,South,180,8.1,8.1,49,0.00,,-RA,0.00,VWS V14.01,2013-05-30 16:25:00,
2013-05-30 12:30:00,85.5,63.0,29.94,NE,45,3.1,3.1,47,0.00,,-RA,0.00,VWS V14.01,2013-05-30 16:30:00,
2013-05-30 12:35:00,85.1,63.2,29.94,SSE,158,2.5,2.5,48,0.00,,-RA,0.00,VWS V14.01,2013-05-30 16:35:00,
2013-05-30 12:40:00,84.9,63.7,29.94,South,180,1.1,1.1,49,0.00,,-RA,0.00,VWS V14.01,2013-05-30 16:40:00,
2013-05-30 12:45:00,84.2,63.0,29.94,ESE,112,5.6,5.6,49,0.00,,-RA,0.00,VWS V14.01,2013-05-30 16:45:00,
2013-05-30 12:50:00,83.7,63.1,29.94,WNW,292,3.8,3.8,50,0.00,,-RA,0.00,VWS V14.01,2013-05-30 16:50:00,
2013-05-30 12:55:00,83.1,63.1,29.94,ENE,68,1.3,1.3,51,0.00,,-RA,0.00,VWS V14.01,2013-05-30 16:55:00,
2013-05-30 13:00:00,82.9,63.5,29.94,South,180,4.9,4.9,52,0.00,,-RA,0.00,VWS V14.01,2013-05-30 17:00:00,
2013-05-30 13:05:00,83.1,64.2,29.94,SSW,202,4.3,4.3,53,0.00,,-RA,0.00,VWS V14.01,2013-05-30 17:05:00,
2013-05-30 13:10:00,82.8,63.9,29.94,SSE,158,4.9,4.9,53,0.00,,-RA,0.00,VWS V14.01,2013-05-30 17:10:00,
2013-05-30 13:15:00,82.6,63.7,29.94,SSE,158,2.9,2.9,53,0.00,,-RA,0.00,VWS V14.01,2013-05-30 17:15:00,
2013-05-30 13:20:00,82.6,64.3,29.94,South,180,7.2,7.2,54,0.00,,-RA,0.00,VWS V14.01,2013-05-30 17:20:00,
2013-05-30 13:25:00,82.6,64.3,29.94,SSE,158,9.2,9.2,54,0.00,,-RA,0.00,VWS V14.01,2013-05-30 17:25:00,
2013-05-30 13:30:00,82.8,63.9,29.94,SW,225,2.0,2.0,53,0.00,,-RA,0.00,VWS V14.01,2013-05-30 17:30:00,
2013-05-30 13:35:00,83.7,65.3,29.94,SSE,158,6.3,6.3,54,0.00,,-RA,0.00,VWS V14.01,2013-05-30 17:35:00,
2013-05-30 13:40:00,83.3,63.3,29.94,SE,135,7.8,7.8,51,0.00,,-RA,0.00,VWS V14.01,2013-05-30 17:40:00,
2013-05-30 13:45:00,83.1,63.7,29.94,NNE,22,1.6,1.6,52,0.00,,-RA,0.00,VWS V14.01,2013-05-30 17:45:00,
2013-05-30 13:50:00,83.1,63.1,29.94,WSW,248,5.4,5.4,51,0.00,,-RA,0.00,VWS V14.01,2013-05-30 17:50:00,
2013-05-30 13:55:00,82.9,64.1,29.94,SSW,202,9.8,9.8,53,0.00,,-RA,0.00,VWS V14.01,2013-05-30 17:55:00,
2013-05-30 14:00:00,83.1,63.1,29.91,East,90,8.5,8.5,51,0.00,,-RA,0.00,VWS V14.01,2013-05-30 18:00:00,
2013-05-30 14:05:00,83.5,63.5,29.91,SSW,202,6.5,6.5,51,0.00,,-RA,0.00,VWS V14.01,2013-05-30 18:05:00,
2013-05-30 14:10:00,83.3,63.3,29.91,East,90,3.4,3.4,51,0.00,,-RA,0.00,VWS V14.01,2013-05-30 18:10:00,
2013-05-30 14:15:00,83.5,64.0,29.91,SSE,158,3.1,3.1,52,0.00,,-RA,0.00,VWS V14.01,2013-05-30 18:15:00,
2013-05-30 14:20:00,84.0,64.5,29.91,South,180,4.7,4.7,52,0.00,,-RA,0.00,VWS V14.01,2013-05-30 18:20:00,
2013-05-30 14:25:00,85.3,65.1,29.91,ESE,112,6.0,6.0,51,0.00,,-RA,0.00,VWS V14.01,2013-05-30 18:25:00,
2013-05-30 14:30:00,86.0,64.6,29.91,NE,45,3.6,3.6,49,0.00,,-RA,0.00,VWS V14.01,2013-05-30 18:30:00,
2013-05-30 14:35:00,85.8,64.5,29.91,East,90,7.6,7.6,49,0.00,,-RA,0.00,VWS V14.01,2013-05-30 18:35:00,
2013-05-30 14:40:00,85.8,63.9,29.91,SSW,202,6.3,6.3,48,0.00,,-RA,0.00,VWS V14.01,2013-05-30 18:40:00,
2013-05-30 14:45:00,85.5,63.0,29.91,SE,135,2.7,2.7,47,0.00,,-RA,0.00,VWS V14.01,2013-05-30 18:45:00,
2013-05-30 14:50:00,85.3,62.2,29.91,West,270,12.5,12.5,46,0.00,,-RA,0.00,VWS V14.01,2013-05-30 18:50:00,
2013-05-30 14:55:00,85.3,61.6,29.91,ESE,112,9.2,9.2,45,0.00,,-RA,0.00,VWS V14.01,2013-05-30 18:55:00,
2013-05-30 15:00:00,84.9,61.8,29.94,SSW,202,3.8,3.8,46,0.00,,-RA,0.00,VWS V14.01,2013-05-30 19:00:00,
2013-05-30 15:05:00,84.4,60.7,29.94,WSW,248,2.0,2.0,45,0.00,,-RA,0.00,VWS V14.01,2013-05-30 19:05:00,
2013-05-30 15:10:00,84.0,61.6,29.94,SSW,202,10.3,10.3,47,0.00,,-RA,0.00,VWS V14.01,2013-05-30 19:10:00,
2013-05-30 15:15:00,83.8,62.1,29.91,South,180,12.8,12.8,48,0.00,,-RA,0.00,VWS V14.01,2013-05-30 19:15:00,
2013-05-30 15:20:00,84.2,62.4,29.91,SSW,202,6.5,6.5,48,0.00,,-RA,0.00,VWS V14.01,2013-05-30 19:20:00,
2013-05-30 15:25:00,84.6,62.1,29.91,SSE,158,3.1,3.1,47,0.00,,-RA,0.00,VWS V14.01,2013-05-30 19:25:00,
2013-05-30 15:30:00,84.4,61.4,29.91,South,180,4.0,4.0,46,0.00,,-RA,0.00,VWS V14.01,2013-05-30 19:30:00,
2013-05-30 15:35:00,84.2,61.8,29.91,SE,135,7.8,7.8,47,0.00,,-RA,0.00,VWS V14.01,2013-05-30 19:35:00,
2013-05-30 15:40:00,84.0,61.6,29.91,SSE,158,7.6,7.6,47,0.00,,-RA,0.00,VWS V14.01,2013-05-30 19:40:00,
2013-05-30 15:45:00,84.2,63.0,29.88,SSE,158,4.0,4.0,49,0.00,,-RA,0.00,VWS V14.01,2013-05-30 19:45:00,
2013-05-30 15:50:00,84.6,62.7,29.88,SSE,158,1.3,1.3,48,0.00,,-RA,0.00,VWS V14.01,2013-05-30 19:50:00,
2013-05-30 15:55:00,85.5,62.3,29.88,SSE,158,4.7,4.7,46,0.00,,-RA,0.00,VWS V14.01,2013-05-30 19:55:00,
2013-05-30 16:00:00,86.0,62.8,29.88,South,180,1.1,1.1,46,0.00,,-RA,0.00,VWS V14.01,2013-05-30 20:00:00,
2013-05-30 16:05:00,85.5,61.7,29.88,SSE,158,15.2,15.2,45,0.00,,-RA,0.00,VWS V14.01,2013-05-30 20:05:00,
2013-05-30 16:10:00,84.7,61.1,29.88,SSW,202,10.1,10.1,45,0.00,,-RA,0.00,VWS V14.01,2013-05-30 20:10:00,
2013-05-30 16:15:00,85.1,62.0,29.88,SSW,202,9.8,9.8,46,0.00,,-RA,0.00,VWS V14.01,2013-05-30 20:15:00,
2013-05-30 16:20:00,85.6,61.9,29.88,SE,135,2.7,2.7,45,0.00,,-RA,0.00,VWS V14.01,2013-05-30 20:20:00,
2013-05-30 16:25:00,85.8,61.4,29.88,South,180,5.8,5.8,44,0.00,,-RA,0.00,VWS V14.01,2013-05-30 20:25:00,
2013-05-30 16:30:00,86.0,61.6,29.85,ESE,112,1.3,1.3,44,0.00,,-RA,0.00,VWS V14.01,2013-05-30 20:30:00,
2013-05-30 16:35:00,85.5,61.7,29.85,WSW,248,0.0,0.0,45,0.00,,-RA,0.00,VWS V14.01,2013-05-30 20:35:00,
2013-05-30 16:40:00,85.3,62.2,29.85,SSW,202,1.1,1.1,46,0.00,,-RA,0.00,VWS V14.01,2013-05-30 20:40:00,
2013-05-30 16:45:00,85.3,62.2,29.85,SSE,158,1.1,1.1,46,0.00,,-RA,0.00,VWS V14.01,2013-05-30 20:45:00,
2013-05-30 16:50:00,85.5,62.3,29.85,WSW,248,0.0,0.0,46,0.00,,-RA,0.00,VWS V14.01,2013-05-30 20:50:00,
2013-05-30 16:55:00,85.5,61.1,29.85,West,270,5.6,5.6,44,0.00,,-RA,0.00,VWS V14.01,2013-05-30 20:55:00,
2013-05-30 17:00:00,85.1,60.8,29.85,SSE,158,1.6,1.6,44,0.00,,-RA,0.00,VWS V14.01,2013-05-30 21:00:00,
2013-05-30 17:06:00,85.6,61.2,29.85,South,180,7.4,7.4,44,0.00,,-RA,0.00,VWS V14.01,2013-05-30 21:06:00,
2013-05-30 17:11:00,86.2,61.7,29.85,South,180,6.5,6.5,44,0.00,,-RA,0.00,VWS V14.01,2013-05-30 21:11:00,
2013-05-30 17:17:00,86.0,60.9,29.85,SE,135,5.6,5.6,43,0.00,,-RA,0.00,VWS V14.01,2013-05-30 21:17:00,
2013-05-30 17:22:00,86.0,60.9,29.85,WSW,248,7.6,7.6,43,0.00,,-RA,0.00,VWS V14.01,2013-05-30 21:22:00,
2013-05-30 17:27:00,85.8,61.4,29.85,SSW,202,6.3,6.3,44,0.00,,-RA,0.00,VWS V14.01,2013-05-30 21:27:00,
2013-05-30 17:32:00,85.3,60.3,29.85,South,180,1.1,1.1,43,0.00,,-RA,0.00,VWS V14.01,2013-05-30 21:32:00,
2013-05-30 17:37:00,85.3,60.9,29.85,West,270,3.8,3.8,44,0.00,,-RA,0.00,VWS V14.01,2013-05-30 21:37:00,
2013-05-30 17:42:00,84.9,60.6,29.85,South,180,3.8,3.8,44,0.00,,-RA,0.00,VWS V14.01,2013-05-30 21:42:00,
2013-05-30 17:47:00,84.6,60.3,29.85,West,270,1.6,1.6,44,0.00,,-RA,0.00,VWS V14.01,2013-05-30 21:47:00,
2013-05-30 17:52:00,84.6,60.9,29.85,SSE,158,4.3,4.3,45,0.00,,-RA,0.00,VWS V14.01,2013-05-30 21:52:00,
2013-05-30 17:57:00,84.9,60.6,29.85,SE,135,9.2,9.2,44,0.00,,-RA,0.00,VWS V14.01,2013-05-30 21:57:00,
2013-05-30 18:02:00,84.9,60.0,29.85,ESE,112,4.9,4.9,43,0.00,,-RA,0.00,VWS V14.01,2013-05-30 22:02:00,
2013-05-30 18:07:00,84.7,59.8,29.85,SSE,158,5.6,5.6,43,0.00,,-RA,0.00,VWS V14.01,2013-05-30 22:07:00,
2013-05-30 18:12:00,84.7,59.8,29.85,SSW,202,12.1,12.1,43,0.00,,-RA,0.00,VWS V14.01,2013-05-30 22:12:00,
2013-05-30 18:17:00,84.6,59.6,29.85,ESE,112,3.4,3.4,43,0.00,,-RA,0.00,VWS V14.01,2013-05-30 22:17:00,
2013-05-30 18:22:00,84.6,59.0,29.85,SSE,158,1.6,1.6,42,0.00,,-RA,0.00,VWS V14.01,2013-05-30 22:22:00,
2013-05-30 18:27:00,84.4,59.5,29.85,SSE,158,8.1,8.1,43,0.00,,-RA,0.00,VWS V14.01,2013-05-30 22:27:00,
2013-05-30 18:32:00,84.4,59.5,29.85,SSE,158,7.6,7.6,43,0.00,,-RA,0.00,VWS V14.01,2013-05-30 22:32:00,
2013-05-30 18:37:00,84.2,60.0,29.85,South,180,4.3,4.3,44,0.00,,-RA,0.00,VWS V14.01,2013-05-30 22:37:00,
2013-05-30 18:42:00,84.6,59.6,29.85,SSE,158,8.5,8.5,43,0.00,,-RA,0.00,VWS V14.01,2013-05-30 22:42:00,
2013-05-30 18:47:00,84.4,59.5,29.85,SSE,158,3.1,3.1,43,0.00,,-RA,0.00,VWS V14.01,2013-05-30 22:47:00,
2013-05-30 18:52:00,84.2,58.6,29.85,South,180,7.2,7.2,42,0.00,,-RA,0.00,VWS V14.01,2013-05-30 22:52:00,
2013-05-30 18:57:00,84.2,59.3,29.85,South,180,13.2,13.2,43,0.00,,-RA,0.00,VWS V14.01,2013-05-30 22:57:00,
2013-05-30 19:02:00,84.0,59.1,29.88,SW,225,6.0,6.0,43,0.00,,-RA,0.00,VWS V14.01,2013-05-30 23:02:00,
2013-05-30 19:07:00,83.8,59.0,29.88,SSE,158,3.4,3.4,43,0.00,,-RA,0.00,VWS V14.01,2013-05-30 23:07:00,
2013-05-30 19:12:00,83.8,59.6,29.88,SSE,158,3.1,3.1,44,0.00,,-RA,0.00,VWS V14.01,2013-05-30 23:12:00,
2013-05-30 19:17:00,83.7,59.5,29.85,South,180,3.4,3.4,44,0.00,,-RA,0.00,VWS V14.01,2013-05-30 23:17:00,
2013-05-30 19:22:00,83.5,59.3,29.85,SSE,158,2.7,2.7,44,0.00,,-RA,0.00,VWS V14.01,2013-05-30 23:22:00,
2013-05-30 19:27:00,83.3,59.8,29.85,SW,225,6.0,6.0,45,0.00,,-RA,0.00,VWS V14.01,2013-05-30 23:27:00,
2013-05-30 19:32:00,83.1,59.6,29.85,SSE,158,1.3,1.3,45,0.00,,-RA,0.00,VWS V14.01,2013-05-30 23:32:00,
2013-05-30 19:37:00,82.9,60.0,29.85,ESE,112,5.8,5.8,46,0.00,,-RA,0.00,VWS V14.01,2013-05-30 23:37:00,
2013-05-30 19:42:00,82.9,60.0,29.85,East,90,2.9,2.9,46,0.00,,-RA,0.00,VWS V14.01,2013-05-30 23:42:00,
2013-05-30 19:47:00,82.8,59.9,29.85,SSE,158,5.8,5.8,46,0.00,,-RA,0.00,VWS V14.01,2013-05-30 23:47:00,
2013-05-30 19:52:00,82.9,60.0,29.85,SSW,202,8.1,8.1,46,0.00,,-RA,0.00,VWS V14.01,2013-05-30 23:52:00,
2013-05-30 19:57:00,83.1,60.2,29.85,South,180,6.5,6.5,46,0.00,,-RA,0.00,VWS V14.01,2013-05-30 23:57:00,
2013-05-30 20:02:00,82.8,60.5,29.85,ESE,112,0.0,0.0,47,0.00,,-RA,0.00,VWS V14.01,2013-05-31 00:02:00,
2013-05-30 20:07:00,82.2,60.6,29.85,SE,135,4.3,4.3,48,0.00,,-RA,0.00,VWS V14.01,2013-05-31 00:07:00,
2013-05-30 20:12:00,82.0,60.4,29.85,South,180,3.4,3.4,48,0.00,,-RA,0.00,VWS V14.01,2013-05-31 00:12:00,
2013-05-30 20:17:00,81.5,59.9,29.85,SSE,158,3.6,3.6,48,0.00,,-RA,0.00,VWS V14.01,2013-05-31 00:17:00,
2013-05-30 20:22:00,81.1,60.2,29.85,SE,135,5.6,5.6,49,0.00,,-RA,0.00,VWS V14.01,2013-05-31 00:22:00,
2013-05-30 20:27:00,80.8,60.4,29.85,NE,45,1.3,1.3,50,0.00,,-RA,0.00,VWS V14.01,2013-05-31 00:27:00,
2013-05-30 20:32:00,80.6,60.3,29.85,SSE,158,2.9,2.9,50,0.00,,-RA,0.00,VWS V14.01,2013-05-31 00:32:00,
2013-05-30 20:37:00,80.4,60.7,29.85,SSE,158,2.7,2.7,51,0.00,,-RA,0.00,VWS V14.01,2013-05-31 00:37:00,
2013-05-30 20:42:00,80.1,60.9,29.85,SE,135,2.7,2.7,52,0.00,,-RA,0.00,VWS V14.01,2013-05-31 00:42:00,
2013-05-30 20:47:00,79.9,61.2,29.85,ESE,112,4.9,4.9,53,0.00,,-RA,0.00,VWS V14.01,2013-05-31 00:47:00,
2013-05-30 20:52:00,79.9,61.8,29.85,SSE,158,3.6,3.6,54,0.00,,-RA,0.00,VWS V14.01,2013-05-31 00:52:00,
2013-05-30 20:57:00,79.9,61.8,29.85,SSE,158,3.4,3.4,54,0.00,,-RA,0.00,VWS V14.01,2013-05-31 00:57:00,
2013-05-30 21:02:00,79.3,61.3,29.85,ESE,112,2.9,2.9,54,0.00,,-RA,0.00,VWS V14.01,2013-05-31 01:02:00,
2013-05-30 21:07:00,79.0,61.5,29.85,SE,135,2.5,2.5,55,0.00,,-RA,0.00,VWS V14.01,2013-05-31 01:07:00,
2013-05-30 21:12:00,78.6,61.6,29.85,SE,135,6.5,6.5,56,0.00,,-RA,0.00,VWS V14.01,2013-05-31 01:12:00,
2013-05-30 21:17:00,78.4,62.0,29.85,South,180,3.8,3.8,57,0.00,,-RA,0.00,VWS V14.01,2013-05-31 01:17:00,
2013-05-30 21:22:00,78.3,61.8,29.85,South,180,0.0,0.0,57,0.00,,-RA,0.00,VWS V14.01,2013-05-31 01:22:00,
2013-05-30 21:27:00,78.1,62.1,29.85,SSE,158,3.6,3.6,58,0.00,,-RA,0.00,VWS V14.01,2013-05-31 01:27:00,
2013-05-30 21:32:00,77.9,62.0,29.85,SSW,202,2.5,2.5,58,0.00,,-RA,0.00,VWS V14.01,2013-05-31 01:32:00,
2013-05-30 21:37:00,77.7,62.3,29.85,SE,135,5.6,5.6,59,0.00,,-RA,0.00,VWS V14.01,2013-05-31 01:37:00,
2013-05-30 21:42:00,77.5,62.1,29.85,SE,135,6.5,6.5,59,0.00,,-RA,0.00,VWS V14.01,2013-05-31 01:42:00,
2013-05-30 21:47:00,77.4,62.4,29.85,SSW,202,5.6,5.6,60,0.00,,-RA,0.00,VWS V14.01,2013-05-31 01:47:00,
2013-05-30 21:52:00,77.4,62.4,29.85,ESE,112,3.4,3.4,60,0.00,,-RA,0.00,VWS V14.01,2013-05-31 01:52:00,
2013-05-30 21:57:00,77.4,62.4,29.85,SE,135,7.6,7.6,60,0.00,,-RA,0.00,VWS V14.01,2013-05-31 01:57:00,
2013-05-30 22:02:00,77.2,62.2,29.85,SSW,202,3.8,3.8,60,0.00,,-RA,0.00,VWS V14.01,2013-05-31 02:02:00,
2013-05-30 22:07:00,77.2,62.7,29.85,East,90,0.0,0.0,61,0.00,,-RA,0.00,VWS V14.01,2013-05-31 02:07:00,
2013-05-30 22:12:00,77.2,62.7,29.85,SSE,158,2.9,2.9,61,0.00,,-RA,0.00,VWS V14.01,2013-05-31 02:12:00,
2013-05-30 22:17:00,76.8,62.4,29.85,SSW,202,2.2,2.2,61,0.00,,-RA,0.00,VWS V14.01,2013-05-31 02:17:00,
2013-05-30 22:22:00,76.8,62.8,29.85,SSE,158,2.7,2.7,62,0.00,,-RA,0.00,VWS V14.01,2013-05-31 02:22:00,
2013-05-30 22:27:00,76.8,62.8,29.85,SE,135,0.0,0.0,62,0.00,,-RA,0.00,VWS V14.01,2013-05-31 02:27:00,
2013-05-30 22:32:00,76.8,62.8,29.88,SSE,158,4.7,4.7,62,0.00,,-RA,0.00,VWS V14.01,2013-05-31 02:32:00,
2013-05-30 22:37:00,76.6,62.7,29.88,SSE,158,4.9,4.9,62,0.00,,-RA,0.00,VWS V14.01,2013-05-31 02:37:00,
2013-05-30 22:42:00,76.6,62.7,29.88,SSE,158,3.4,3.4,62,0.00,,-RA,0.00,VWS V14.01,2013-05-31 02:42:00,
2013-05-30 22:47:00,76.5,62.9,29.88,South,180,5.8,5.8,63,0.00,,-RA,0.00,VWS V14.01,2013-05-31 02:47:00,
2013-05-30 22:52:00,76.5,62.9,29.88,SSE,158,2.5,2.5,63,0.00,,-RA,0.00,VWS V14.01,2013-05-31 02:52:00,
2013-05-30 22:57:00,76.5,62.9,29.88,SSE,158,5.4,5.4,63,0.00,,-RA,0.00,VWS V14.01,2013-05-31 02:57:00,
2013-05-30 23:02:00,76.5,62.9,29.88,SSE,158,4.0,4.0,63,0.00,,-RA,0.00,VWS V14.01,2013-05-31 03:02:00,
2013-05-30 23:07:00,76.5,62.9,29.88,South,180,3.6,3.6,63,0.00,,-RA,0.00,VWS V14.01,2013-05-31 03:07:00,
2013-05-30 23:12:00,76.3,62.8,29.88,SSE,158,3.4,3.4,63,0.00,,-RA,0.00,VWS V14.01,2013-05-31 03:12:00,
2013-05-30 23:17:00,76.3,62.8,29.88,SSW,202,4.0,4.0,63,0.00,,-RA,0.00,VWS V14.01,2013-05-31 03:17:00,
2013-05-30 23:22:00,76.1,62.6,29.88,SSE,158,0.0,0.0,63,0.00,,-RA,0.00,VWS V14.01,2013-05-31 03:22:00,
2013-05-30 23:27:00,75.9,62.9,29.88,SSE,158,2.2,2.2,64,0.00,,-RA,0.00,VWS V14.01,2013-05-31 03:27:00,
2013-05-30 23:32:00,75.9,62.9,29.88,SSE,158,5.8,5.8,64,0.00,,-RA,0.00,VWS V14.01,2013-05-31 03:32:00,
2013-05-30 23:37:00,76.1,63.0,29.88,SSE,158,2.5,2.5,64,0.00,,-RA,0.00,VWS V14.01,2013-05-31 03:37:00,
2013-05-30 23:42:00,76.1,63.0,29.88,SSE,158,0.0,0.0,64,0.00,,-RA,0.00,VWS V14.01,2013-05-31 03:42:00,
2013-05-30 23:47:00,76.1,63.0,29.88,SE,135,3.1,3.1,64,0.00,,-RA,0.00,VWS V14.01,2013-05-31 03:47:00,
2013-05-30 23:52:00,76.1,63.0,29.88,ESE,112,5.4,5.4,64,0.00,,-RA,0.00,VWS V14.01,2013-05-31 03:52:00,
2013-05-30 23:57:00,76.1,63.0,29.88,SE,135,2.7,2.7,64,0.00,,-RA,0.00,VWS V14.01,2013-05-31 03:57:00,